Year,Month,Day,Hour,Minute,Value (Times are PST for temperature in C)
2014,09,13,00,00,14.60
2014,09,13,00,01,14.60
2014,09,13,00,02,14.60
2014,09,13,00,03,14.60
2014,09,13,00,04,14.60
2014,09,13,00,05,14.50
2014,09,13,00,06,14.50
2014,09,13,00,07,14.40
2014,09,13,00,08,14.40
2014,09,13,00,09,14.30
2014,09,13,00,10,14.30
2014,09,13,00,11,14.20
2014,09,13,00,12,14.20
2014,09,13,00,13,14.20
2014,09,13,00,14,14.20
2014,09,13,00,15,14.20
2014,09,13,00,16,14.10
2014,09,13,00,17,14.10
2014,09,13,00,18,14.00
2014,09,13,00,19,14.00
2014,09,13,00,20,13.90
2014,09,13,00,21,13.90
2014,09,13,00,22,13.90
2014,09,13,00,23,13.90
2014,09,13,00,24,13.80
2014,09,13,00,25,13.80
2014,09,13,00,26,13.80
2014,09,13,00,27,13.80
2014,09,13,00,28,13.80
2014,09,13,00,29,13.80
2014,09,13,00,30,13.80
2014,09,13,00,31,13.70
2014,09,13,00,32,13.70
2014,09,13,00,33,13.70
2014,09,13,00,34,13.70
2014,09,13,00,35,13.70
2014,09,13,00,36,13.60
2014,09,13,00,37,13.60
2014,09,13,00,38,13.50
2014,09,13,00,39,13.50
2014,09,13,00,40,13.50
2014,09,13,00,41,13.40
2014,09,13,00,42,13.40
2014,09,13,00,43,13.40
2014,09,13,00,44,13.40
2014,09,13,00,45,13.50
2014,09,13,00,46,13.50
2014,09,13,00,47,13.50
2014,09,13,00,48,13.50
2014,09,13,00,49,13.50
2014,09,13,00,50,13.60
2014,09,13,00,51,13.60
2014,09,13,00,52,13.70
2014,09,13,00,53,13.70
2014,09,13,00,54,13.80
2014,09,13,00,55,13.90
2014,09,13,00,56,13.90
2014,09,13,00,57,14.00
2014,09,13,00,58,14.00
2014,09,13,00,59,14.00
2014,09,13,01,00,14.10
2014,09,13,01,01,14.10
2014,09,13,01,02,14.10
2014,09,13,01,03,14.20
2014,09,13,01,04,14.20
2014,09,13,01,05,14.20
2014,09,13,01,06,14.20
2014,09,13,01,07,14.10
2014,09,13,01,08,14.10
2014,09,13,01,09,14.00
2014,09,13,01,10,14.00
2014,09,13,01,11,14.00
2014,09,13,01,12,13.90
2014,09,13,01,13,13.90
2014,09,13,01,14,13.80
2014,09,13,01,15,13.80
2014,09,13,01,16,13.70
2014,09,13,01,17,13.70
2014,09,13,01,18,13.70
2014,09,13,01,19,13.60
2014,09,13,01,20,13.60
2014,09,13,01,21,13.60
2014,09,13,01,22,13.60
2014,09,13,01,23,13.60
2014,09,13,01,24,13.60
2014,09,13,01,25,13.50
2014,09,13,01,26,13.50
2014,09,13,01,27,13.50
2014,09,13,01,28,13.50
2014,09,13,01,29,13.40
2014,09,13,01,30,13.40
2014,09,13,01,31,13.40
2014,09,13,01,32,13.40
2014,09,13,01,33,13.40
2014,09,13,01,34,13.40
2014,09,13,01,35,13.30
2014,09,13,01,36,13.30
2014,09,13,01,37,13.40
2014,09,13,01,38,13.40
2014,09,13,01,39,13.40
2014,09,13,01,40,13.40
2014,09,13,01,41,13.40
2014,09,13,01,42,13.40
2014,09,13,01,43,13.40
2014,09,13,01,44,13.40
2014,09,13,01,45,13.40
2014,09,13,01,46,13.30
2014,09,13,01,47,13.30
2014,09,13,01,48,13.30
2014,09,13,01,49,13.30
2014,09,13,01,50,13.30
2014,09,13,01,51,13.30
2014,09,13,01,52,13.30
2014,09,13,01,53,13.30
2014,09,13,01,54,13.30
2014,09,13,01,55,13.30
2014,09,13,01,56,13.30
2014,09,13,01,57,13.20
2014,09,13,01,58,13.20
2014,09,13,01,59,13.20
2014,09,13,02,00,13.10
2014,09,13,02,01,13.10
2014,09,13,02,02,13.00
2014,09,13,02,03,13.00
2014,09,13,02,04,13.00
2014,09,13,02,05,13.00
2014,09,13,02,06,13.00
2014,09,13,02,07,13.00
2014,09,13,02,08,13.10
2014,09,13,02,09,13.00
2014,09,13,02,10,13.00
2014,09,13,02,11,13.00
2014,09,13,02,12,12.90
2014,09,13,02,13,12.80
2014,09,13,02,14,12.80
2014,09,13,02,15,12.80
2014,09,13,02,16,12.80
2014,09,13,02,17,12.80
2014,09,13,02,18,12.80
2014,09,13,02,19,12.80
2014,09,13,02,20,12.80
2014,09,13,02,21,12.80
2014,09,13,02,22,12.90
2014,09,13,02,23,13.00
2014,09,13,02,24,13.10
2014,09,13,02,25,13.20
2014,09,13,02,26,13.40
2014,09,13,02,27,13.50
2014,09,13,02,28,13.60
2014,09,13,02,29,13.70
2014,09,13,02,30,13.70
2014,09,13,02,31,13.80
2014,09,13,02,32,13.90
2014,09,13,02,33,14.00
2014,09,13,02,34,14.10
2014,09,13,02,35,14.20
2014,09,13,02,36,14.20
2014,09,13,02,37,14.20
2014,09,13,02,38,14.20
2014,09,13,02,39,14.20
2014,09,13,02,40,14.30
2014,09,13,02,41,14.30
2014,09,13,02,42,14.30
2014,09,13,02,43,14.30
2014,09,13,02,44,14.30
2014,09,13,02,45,14.30
2014,09,13,02,46,14.30
2014,09,13,02,47,14.30
2014,09,13,02,48,14.30
2014,09,13,02,49,14.30
2014,09,13,02,50,14.40
2014,09,13,02,51,14.40
2014,09,13,02,52,14.50
2014,09,13,02,53,14.50
2014,09,13,02,54,14.50
2014,09,13,02,55,14.60
2014,09,13,02,56,14.60
2014,09,13,02,57,14.60
2014,09,13,02,58,14.60
2014,09,13,02,59,14.70
2014,09,13,03,00,14.70
2014,09,13,03,01,14.70
2014,09,13,03,02,14.70
2014,09,13,03,03,14.70
2014,09,13,03,04,14.70
2014,09,13,03,05,14.70
2014,09,13,03,06,14.80
2014,09,13,03,07,14.80
2014,09,13,03,08,14.80
2014,09,13,03,09,14.80
2014,09,13,03,10,14.80
2014,09,13,03,11,14.80
2014,09,13,03,12,14.90
2014,09,13,03,13,14.90
2014,09,13,03,14,14.90
2014,09,13,03,15,14.90
2014,09,13,03,16,14.90
2014,09,13,03,17,14.90
2014,09,13,03,18,14.90
2014,09,13,03,19,14.90
2014,09,13,03,20,14.90
2014,09,13,03,21,14.90
2014,09,13,03,22,14.90
2014,09,13,03,23,14.90
2014,09,13,03,24,14.90
2014,09,13,03,25,14.80
2014,09,13,03,26,14.80
2014,09,13,03,27,14.80
2014,09,13,03,28,14.80
2014,09,13,03,29,14.80
2014,09,13,03,30,14.80
2014,09,13,03,31,14.80
2014,09,13,03,32,14.80
2014,09,13,03,33,14.80
2014,09,13,03,34,14.80
2014,09,13,03,35,14.80
2014,09,13,03,36,14.80
2014,09,13,03,37,14.90
2014,09,13,03,38,14.90
2014,09,13,03,39,15.00
2014,09,13,03,40,15.00
2014,09,13,03,41,15.00
2014,09,13,03,42,15.10
2014,09,13,03,43,15.10
2014,09,13,03,44,15.10
2014,09,13,03,45,15.10
2014,09,13,03,46,15.10
2014,09,13,03,47,15.10
2014,09,13,03,48,15.10
2014,09,13,03,49,15.10
2014,09,13,03,50,15.10
2014,09,13,03,51,15.00
2014,09,13,03,52,15.00
2014,09,13,03,53,14.90
2014,09,13,03,54,14.90
2014,09,13,03,55,14.90
2014,09,13,03,56,14.90
2014,09,13,03,57,14.80
2014,09,13,03,58,14.80
2014,09,13,03,59,14.80
2014,09,13,04,00,14.80
2014,09,13,04,01,14.80
2014,09,13,04,02,14.80
2014,09,13,04,03,14.80
2014,09,13,04,04,14.80
2014,09,13,04,05,14.80
2014,09,13,04,06,14.80
2014,09,13,04,07,14.80
2014,09,13,04,08,14.80
2014,09,13,04,09,14.90
2014,09,13,04,10,14.90
2014,09,13,04,11,15.00
2014,09,13,04,12,15.00
2014,09,13,04,13,15.10
2014,09,13,04,14,15.20
2014,09,13,04,15,15.20
2014,09,13,04,16,15.30
2014,09,13,04,17,15.30
2014,09,13,04,18,15.40
2014,09,13,04,19,15.50
2014,09,13,04,20,15.50
2014,09,13,04,21,15.60
2014,09,13,04,22,15.60
2014,09,13,04,23,15.70
2014,09,13,04,24,15.80
2014,09,13,04,25,15.80
2014,09,13,04,26,15.80
2014,09,13,04,27,15.80
2014,09,13,04,28,15.80
2014,09,13,04,29,15.80
2014,09,13,04,30,15.80
2014,09,13,04,31,15.80
2014,09,13,04,32,15.80
2014,09,13,04,33,15.80
2014,09,13,04,34,15.80
2014,09,13,04,35,15.90
2014,09,13,04,36,15.90
2014,09,13,04,37,15.90
2014,09,13,04,38,15.90
2014,09,13,04,39,16.00
2014,09,13,04,40,16.10
2014,09,13,04,41,16.10
2014,09,13,04,42,16.10
2014,09,13,04,43,16.10
2014,09,13,04,44,16.10
2014,09,13,04,45,16.10
2014,09,13,04,46,16.00
2014,09,13,04,47,16.10
2014,09,13,04,48,16.10
2014,09,13,04,49,16.10
2014,09,13,04,50,16.10
2014,09,13,04,51,16.10
2014,09,13,04,52,16.20
2014,09,13,04,53,16.20
2014,09,13,04,54,16.20
2014,09,13,04,55,16.30
2014,09,13,04,56,16.30
2014,09,13,04,57,16.30
2014,09,13,04,58,16.40
2014,09,13,04,59,16.40
2014,09,13,05,00,16.40
2014,09,13,05,01,16.40
2014,09,13,05,02,16.40
2014,09,13,05,03,16.40
2014,09,13,05,04,16.30
2014,09,13,05,05,16.30
2014,09,13,05,06,16.30
2014,09,13,05,07,16.30
2014,09,13,05,08,16.30
2014,09,13,05,09,16.30
2014,09,13,05,10,16.30
2014,09,13,05,11,16.30
2014,09,13,05,12,16.30
2014,09,13,05,13,16.30
2014,09,13,05,14,16.30
2014,09,13,05,15,16.30
2014,09,13,05,16,16.30
2014,09,13,05,17,16.30
2014,09,13,05,18,16.30
2014,09,13,05,19,16.30
2014,09,13,05,20,16.30
2014,09,13,05,21,16.30
2014,09,13,05,22,16.30
2014,09,13,05,23,16.30
2014,09,13,05,24,16.30
2014,09,13,05,25,16.30
2014,09,13,05,26,16.30
2014,09,13,05,27,16.30
2014,09,13,05,28,16.30
2014,09,13,05,29,16.30
2014,09,13,05,30,16.30
2014,09,13,05,31,16.30
2014,09,13,05,32,16.30
2014,09,13,05,33,16.30
2014,09,13,05,34,16.30
2014,09,13,05,35,16.30
2014,09,13,05,36,16.30
2014,09,13,05,37,16.40
2014,09,13,05,38,16.40
2014,09,13,05,39,16.40
2014,09,13,05,40,16.30
2014,09,13,05,41,16.40
2014,09,13,05,42,16.40
2014,09,13,05,43,16.40
2014,09,13,05,44,16.40
2014,09,13,05,45,16.40
2014,09,13,05,46,16.40
2014,09,13,05,47,16.40
2014,09,13,05,48,16.40
2014,09,13,05,49,16.40
2014,09,13,05,50,16.40
2014,09,13,05,51,16.40
2014,09,13,05,52,16.40
2014,09,13,05,53,16.40
2014,09,13,05,54,16.40
2014,09,13,05,55,16.40
2014,09,13,05,56,16.40
2014,09,13,05,57,16.40
2014,09,13,05,58,16.40
2014,09,13,05,59,16.40
2014,09,13,06,00,16.40
2014,09,13,06,01,16.40
2014,09,13,06,02,16.40
2014,09,13,06,03,16.40
2014,09,13,06,04,16.40
2014,09,13,06,05,16.40
2014,09,13,06,06,16.40
2014,09,13,06,07,16.40
2014,09,13,06,08,16.40
2014,09,13,06,09,16.40
2014,09,13,06,10,16.40
2014,09,13,06,11,16.40
2014,09,13,06,12,16.40
2014,09,13,06,13,16.40
2014,09,13,06,14,16.30
2014,09,13,06,15,16.30
2014,09,13,06,16,16.30
2014,09,13,06,17,16.30
2014,09,13,06,18,16.30
2014,09,13,06,19,16.30
2014,09,13,06,20,16.30
2014,09,13,06,21,16.30
2014,09,13,06,22,16.30
2014,09,13,06,23,16.20
2014,09,13,06,24,16.20
2014,09,13,06,25,16.20
2014,09,13,06,26,16.20
2014,09,13,06,27,16.20
2014,09,13,06,28,16.10
2014,09,13,06,29,16.10
2014,09,13,06,30,16.10
2014,09,13,06,31,16.10
2014,09,13,06,32,16.10
2014,09,13,06,33,16.10
2014,09,13,06,34,16.10
2014,09,13,06,35,16.10
2014,09,13,06,36,16.10
2014,09,13,06,37,16.20
2014,09,13,06,38,16.30
2014,09,13,06,39,16.30
2014,09,13,06,40,16.40
2014,09,13,06,41,16.50
2014,09,13,06,42,16.60
2014,09,13,06,43,16.60
2014,09,13,06,44,16.70
2014,09,13,06,45,16.70
2014,09,13,06,46,16.70
2014,09,13,06,47,16.70
2014,09,13,06,48,16.80
2014,09,13,06,49,16.80
2014,09,13,06,50,16.80
2014,09,13,06,51,16.80
2014,09,13,06,52,16.80
2014,09,13,06,53,16.80
2014,09,13,06,54,16.80
2014,09,13,06,55,16.70
2014,09,13,06,56,16.80
2014,09,13,06,57,16.80
2014,09,13,06,58,16.80
2014,09,13,06,59,16.90
2014,09,13,07,00,16.90
2014,09,13,07,01,16.90
2014,09,13,07,02,16.90
2014,09,13,07,03,16.90
2014,09,13,07,04,16.90
2014,09,13,07,05,16.90
2014,09,13,07,06,16.90
2014,09,13,07,07,16.90
2014,09,13,07,08,16.90
2014,09,13,07,09,17.00
2014,09,13,07,10,17.00
2014,09,13,07,11,17.00
2014,09,13,07,12,17.00
2014,09,13,07,13,17.00
2014,09,13,07,14,17.10
2014,09,13,07,15,17.10
2014,09,13,07,16,17.10
2014,09,13,07,17,17.20
2014,09,13,07,18,17.20
2014,09,13,07,19,17.20
2014,09,13,07,20,17.20
2014,09,13,07,21,17.20
2014,09,13,07,22,17.20
2014,09,13,07,23,17.20
2014,09,13,07,24,17.20
2014,09,13,07,25,17.20
2014,09,13,07,26,17.20
2014,09,13,07,27,17.30
2014,09,13,07,28,17.30
2014,09,13,07,29,17.30
2014,09,13,07,30,17.30
2014,09,13,07,31,17.40
2014,09,13,07,32,17.40
2014,09,13,07,33,17.40
2014,09,13,07,34,17.40
2014,09,13,07,35,17.50
2014,09,13,07,36,17.50
2014,09,13,07,37,17.50
2014,09,13,07,38,17.60
2014,09,13,07,39,17.60
2014,09,13,07,40,17.60
2014,09,13,07,41,17.60
2014,09,13,07,42,17.60
2014,09,13,07,43,17.60
2014,09,13,07,44,17.70
2014,09,13,07,45,17.70
2014,09,13,07,46,17.70
2014,09,13,07,47,17.70
2014,09,13,07,48,17.70
2014,09,13,07,49,17.70
2014,09,13,07,50,17.80
2014,09,13,07,51,17.80
2014,09,13,07,52,17.80
2014,09,13,07,53,17.80
2014,09,13,07,54,17.90
2014,09,13,07,55,17.90
2014,09,13,07,56,17.90
2014,09,13,07,57,17.90
2014,09,13,07,58,17.90
2014,09,13,07,59,17.90
2014,09,13,08,00,17.90
2014,09,13,08,01,17.90
2014,09,13,08,02,17.90
2014,09,13,08,03,17.90
2014,09,13,08,04,17.90
2014,09,13,08,05,17.90
2014,09,13,08,06,17.90
2014,09,13,08,07,17.90
2014,09,13,08,08,17.90
2014,09,13,08,09,17.90
2014,09,13,08,10,17.90
2014,09,13,08,11,17.90
2014,09,13,08,12,17.90
2014,09,13,08,13,17.90
2014,09,13,08,14,17.90
2014,09,13,08,15,17.90
2014,09,13,08,16,17.90
2014,09,13,08,17,17.90
2014,09,13,08,18,17.90
2014,09,13,08,19,17.90
2014,09,13,08,20,17.90
2014,09,13,08,21,17.90
2014,09,13,08,22,17.90
2014,09,13,08,23,17.90
2014,09,13,08,24,17.90
2014,09,13,08,25,17.90
2014,09,13,08,26,17.90
2014,09,13,08,27,17.90
2014,09,13,08,28,17.90
2014,09,13,08,29,17.90
2014,09,13,08,30,18.00
2014,09,13,08,31,18.10
2014,09,13,08,32,18.10
2014,09,13,08,33,18.20
2014,09,13,08,34,18.20
2014,09,13,08,35,18.20
2014,09,13,08,36,18.20
2014,09,13,08,37,18.20
2014,09,13,08,38,18.20
2014,09,13,08,39,18.20
2014,09,13,08,40,18.20
2014,09,13,08,41,18.20
2014,09,13,08,42,18.20
2014,09,13,08,43,18.20
2014,09,13,08,44,18.30
2014,09,13,08,45,18.30
2014,09,13,08,46,18.30
2014,09,13,08,47,18.40
2014,09,13,08,48,18.40
2014,09,13,08,49,18.50
2014,09,13,08,50,18.50
2014,09,13,08,51,18.60
2014,09,13,08,52,18.70
2014,09,13,08,53,18.70
2014,09,13,08,54,18.70
2014,09,13,08,55,18.80
2014,09,13,08,56,18.80
2014,09,13,08,57,18.80
2014,09,13,08,58,18.90
2014,09,13,08,59,18.90
2014,09,13,09,00,18.90
2014,09,13,09,01,18.90
2014,09,13,09,02,18.90
2014,09,13,09,03,18.90
2014,09,13,09,04,18.90
2014,09,13,09,05,18.90
2014,09,13,09,06,18.90
2014,09,13,09,07,18.90
2014,09,13,09,08,18.90
2014,09,13,09,09,18.90
2014,09,13,09,10,18.90
2014,09,13,09,11,18.90
2014,09,13,09,12,18.90
2014,09,13,09,13,19.00
2014,09,13,09,14,19.10
2014,09,13,09,15,19.10
2014,09,13,09,16,19.10
2014,09,13,09,17,19.10
2014,09,13,09,18,19.10
2014,09,13,09,19,19.10
2014,09,13,09,20,19.00
2014,09,13,09,21,18.90
2014,09,13,09,22,18.90
2014,09,13,09,23,18.90
2014,09,13,09,24,18.90
2014,09,13,09,25,18.90
2014,09,13,09,26,18.90
2014,09,13,09,27,18.90
2014,09,13,09,28,19.10
2014,09,13,09,29,19.10
2014,09,13,09,30,19.10
2014,09,13,09,31,19.10
2014,09,13,09,32,19.20
2014,09,13,09,33,19.20
2014,09,13,09,34,19.20
2014,09,13,09,35,19.30
2014,09,13,09,36,19.30
2014,09,13,09,37,19.30
2014,09,13,09,38,19.30
2014,09,13,09,39,19.20
2014,09,13,09,40,19.20
2014,09,13,09,41,19.30
2014,09,13,09,42,19.30
2014,09,13,09,43,19.30
2014,09,13,09,44,19.20
2014,09,13,09,45,19.20
2014,09,13,09,46,19.10
2014,09,13,09,47,19.10
2014,09,13,09,48,19.10
2014,09,13,09,49,19.20
2014,09,13,09,50,19.30
2014,09,13,09,51,19.40
2014,09,13,09,52,19.50
2014,09,13,09,53,19.50
2014,09,13,09,54,19.50
2014,09,13,09,55,19.50
2014,09,13,09,56,19.50
2014,09,13,09,57,19.50
2014,09,13,09,58,19.60
2014,09,13,09,59,19.60
2014,09,13,10,00,19.70
2014,09,13,10,01,19.70
2014,09,13,10,02,19.70
2014,09,13,10,03,19.80
2014,09,13,10,04,19.80
2014,09,13,10,05,19.80
2014,09,13,10,06,19.90
2014,09,13,10,07,19.90
2014,09,13,10,08,19.90
2014,09,13,10,09,19.90
2014,09,13,10,10,19.90
2014,09,13,10,11,19.90
2014,09,13,10,12,19.90
2014,09,13,10,13,20.10
2014,09,13,10,14,20.10
2014,09,13,10,15,20.10
2014,09,13,10,16,20.20
2014,09,13,10,17,20.20
2014,09,13,10,18,20.20
2014,09,13,10,19,20.20
2014,09,13,10,20,20.20
2014,09,13,10,21,20.20
2014,09,13,10,22,20.20
2014,09,13,10,23,20.20
2014,09,13,10,24,20.20
2014,09,13,10,25,20.20
2014,09,13,10,26,20.20
2014,09,13,10,27,20.20
2014,09,13,10,28,20.20
2014,09,13,10,29,20.30
2014,09,13,10,30,20.30
2014,09,13,10,31,20.30
2014,09,13,10,32,20.30
2014,09,13,10,33,20.30
2014,09,13,10,34,20.30
2014,09,13,10,35,20.30
2014,09,13,10,36,20.30
2014,09,13,10,37,20.30
2014,09,13,10,38,20.40
2014,09,13,10,39,20.50
2014,09,13,10,40,20.50
2014,09,13,10,41,20.60
2014,09,13,10,42,20.70
2014,09,13,10,43,20.80
2014,09,13,10,44,20.80
2014,09,13,10,45,20.90
2014,09,13,10,46,21.00
2014,09,13,10,47,21.00
2014,09,13,10,48,21.10
2014,09,13,10,49,21.20
2014,09,13,10,50,21.10
2014,09,13,10,51,21.00
2014,09,13,10,52,20.90
2014,09,13,10,53,20.90
2014,09,13,10,54,20.90
2014,09,13,10,55,20.90
2014,09,13,10,56,21.00
2014,09,13,10,57,21.10
2014,09,13,10,58,21.20
2014,09,13,10,59,21.20
2014,09,13,11,00,21.20
2014,09,13,11,01,21.20
2014,09,13,11,02,21.20
2014,09,13,11,03,21.20
2014,09,13,11,04,21.20
2014,09,13,11,05,21.20
2014,09,13,11,06,21.20
2014,09,13,11,07,21.10
2014,09,13,11,08,21.00
2014,09,13,11,09,21.00
2014,09,13,11,10,21.00
2014,09,13,11,11,21.00
2014,09,13,11,12,21.00
2014,09,13,11,13,21.00
2014,09,13,11,14,21.00
2014,09,13,11,15,21.00
2014,09,13,11,16,21.00
2014,09,13,11,17,21.00
2014,09,13,11,18,21.00
2014,09,13,11,19,21.00
2014,09,13,11,20,21.00
2014,09,13,11,21,20.90
2014,09,13,11,22,20.90
2014,09,13,11,23,21.00
2014,09,13,11,24,21.00
2014,09,13,11,25,21.10
2014,09,13,11,26,21.10
2014,09,13,11,27,21.10
2014,09,13,11,28,21.20
2014,09,13,11,29,21.30
2014,09,13,11,30,21.30
2014,09,13,11,31,21.30
2014,09,13,11,32,21.40
2014,09,13,11,33,21.50
2014,09,13,11,34,21.60
2014,09,13,11,35,21.60
2014,09,13,11,36,21.60
2014,09,13,11,37,21.60
2014,09,13,11,38,21.60
2014,09,13,11,39,21.60
2014,09,13,11,40,21.60
2014,09,13,11,41,21.60
2014,09,13,11,42,21.60
2014,09,13,11,43,21.60
2014,09,13,11,44,21.60
2014,09,13,11,45,21.60
2014,09,13,11,46,21.60
2014,09,13,11,47,21.60
2014,09,13,11,48,21.60
2014,09,13,11,49,21.60
2014,09,13,11,50,21.60
2014,09,13,11,51,21.60
2014,09,13,11,52,21.60
2014,09,13,11,53,21.60
2014,09,13,11,54,21.60
2014,09,13,11,55,21.70
2014,09,13,11,56,21.80
2014,09,13,11,57,21.90
2014,09,13,11,58,22.00
2014,09,13,11,59,22.00
2014,09,13,12,00,22.10
2014,09,13,12,01,22.20
2014,09,13,12,02,22.30
2014,09,13,12,03,22.40
2014,09,13,12,04,22.40
2014,09,13,12,05,22.40
2014,09,13,12,06,22.30
2014,09,13,12,07,22.20
2014,09,13,12,08,22.20
2014,09,13,12,09,22.20
2014,09,13,12,10,22.20
2014,09,13,12,11,22.20
2014,09,13,12,12,22.20
2014,09,13,12,13,22.20
2014,09,13,12,14,22.20
2014,09,13,12,15,22.10
2014,09,13,12,16,22.10
2014,09,13,12,17,22.10
2014,09,13,12,18,22.10
2014,09,13,12,19,22.20
2014,09,13,12,20,22.20
2014,09,13,12,21,22.20
2014,09,13,12,22,22.20
2014,09,13,12,23,22.20
2014,09,13,12,24,22.20
2014,09,13,12,25,22.30
2014,09,13,12,26,22.30
2014,09,13,12,27,22.40
2014,09,13,12,28,22.50
2014,09,13,12,29,22.60
2014,09,13,12,30,22.60
2014,09,13,12,31,22.70
2014,09,13,12,32,22.70
2014,09,13,12,33,22.70
2014,09,13,12,34,22.70
2014,09,13,12,35,22.70
2014,09,13,12,36,22.80
2014,09,13,12,37,22.80
2014,09,13,12,38,22.90
2014,09,13,12,39,22.90
2014,09,13,12,40,22.80
2014,09,13,12,41,22.80
2014,09,13,12,42,22.80
2014,09,13,12,43,22.90
2014,09,13,12,44,22.90
2014,09,13,12,45,23.00
2014,09,13,12,46,23.10
2014,09,13,12,47,23.20
2014,09,13,12,48,23.30
2014,09,13,12,49,23.30
2014,09,13,12,50,23.30
2014,09,13,12,51,23.30
2014,09,13,12,52,23.20
2014,09,13,12,53,23.10
2014,09,13,12,54,23.00
2014,09,13,12,55,22.90
2014,09,13,12,56,22.70
2014,09,13,12,57,22.60
2014,09,13,12,58,22.50
2014,09,13,12,59,22.40
2014,09,13,13,00,22.40
2014,09,13,13,01,22.40
2014,09,13,13,02,22.40
2014,09,13,13,03,22.40
2014,09,13,13,04,22.50
2014,09,13,13,05,22.50
2014,09,13,13,06,22.40
2014,09,13,13,07,22.40
2014,09,13,13,08,22.40
2014,09,13,13,09,22.40
2014,09,13,13,10,22.40
2014,09,13,13,11,22.40
2014,09,13,13,12,22.40
2014,09,13,13,13,22.50
2014,09,13,13,14,22.60
2014,09,13,13,15,22.70
2014,09,13,13,16,22.80
2014,09,13,13,17,22.80
2014,09,13,13,18,22.90
2014,09,13,13,19,22.90
2014,09,13,13,20,22.90
2014,09,13,13,21,22.90
2014,09,13,13,22,23.10
2014,09,13,13,23,23.10
2014,09,13,13,24,23.10
2014,09,13,13,25,23.00
2014,09,13,13,26,23.10
2014,09,13,13,27,23.10
2014,09,13,13,28,23.20
2014,09,13,13,29,23.30
2014,09,13,13,30,23.30
2014,09,13,13,31,23.30
2014,09,13,13,32,23.30
2014,09,13,13,33,23.40
2014,09,13,13,34,23.50
2014,09,13,13,35,23.60
2014,09,13,13,36,23.70
2014,09,13,13,37,23.70
2014,09,13,13,38,23.70
2014,09,13,13,39,23.80
2014,09,13,13,40,23.90
2014,09,13,13,41,24.00
2014,09,13,13,42,24.10
2014,09,13,13,43,24.10
2014,09,13,13,44,24.10
2014,09,13,13,45,24.10
2014,09,13,13,46,24.10
2014,09,13,13,47,24.00
2014,09,13,13,48,24.00
2014,09,13,13,49,23.90
2014,09,13,13,50,23.90
2014,09,13,13,51,23.80
2014,09,13,13,52,23.80
2014,09,13,13,53,23.70
2014,09,13,13,54,23.60
2014,09,13,13,55,23.50
2014,09,13,13,56,23.40
2014,09,13,13,57,23.40
2014,09,13,13,58,23.40
2014,09,13,13,59,23.40
2014,09,13,14,00,23.40
2014,09,13,14,01,23.40
2014,09,13,14,02,23.50
2014,09,13,14,03,23.60
2014,09,13,14,04,23.70
2014,09,13,14,05,23.70
2014,09,13,14,06,23.70
2014,09,13,14,07,23.80
2014,09,13,14,08,23.80
2014,09,13,14,09,23.90
2014,09,13,14,10,23.90
2014,09,13,14,11,23.90
2014,09,13,14,12,23.90
2014,09,13,14,13,23.80
2014,09,13,14,14,23.70
2014,09,13,14,15,23.70
2014,09,13,14,16,23.70
2014,09,13,14,17,23.70
2014,09,13,14,18,23.70
2014,09,13,14,19,23.70
2014,09,13,14,20,23.80
2014,09,13,14,21,23.80
2014,09,13,14,22,23.80
2014,09,13,14,23,23.80
2014,09,13,14,24,23.80
2014,09,13,14,25,23.80
2014,09,13,14,26,23.80
2014,09,13,14,27,23.80
2014,09,13,14,28,23.80
2014,09,13,14,29,23.80
2014,09,13,14,30,23.80
2014,09,13,14,31,23.90
2014,09,13,14,32,24.00
2014,09,13,14,33,24.10
2014,09,13,14,34,24.10
2014,09,13,14,35,24.20
2014,09,13,14,36,24.30
2014,09,13,14,37,24.30
2014,09,13,14,38,24.30
2014,09,13,14,39,24.30
2014,09,13,14,40,24.30
2014,09,13,14,41,24.30
2014,09,13,14,42,24.30
2014,09,13,14,43,24.40
2014,09,13,14,44,24.40
2014,09,13,14,45,24.40
2014,09,13,14,46,24.40
2014,09,13,14,47,24.40
2014,09,13,14,48,24.50
2014,09,13,14,49,24.50
2014,09,13,14,50,24.60
2014,09,13,14,51,24.70
2014,09,13,14,52,24.80
2014,09,13,14,53,24.80
2014,09,13,14,54,24.90
2014,09,13,14,55,25.00
2014,09,13,14,56,25.10
2014,09,13,14,57,25.10
2014,09,13,14,58,25.10
2014,09,13,14,59,25.10
2014,09,13,15,00,25.10
2014,09,13,15,01,25.10
2014,09,13,15,02,25.10
2014,09,13,15,03,25.10
2014,09,13,15,04,25.10
2014,09,13,15,05,25.00
2014,09,13,15,06,25.00
2014,09,13,15,07,25.10
2014,09,13,15,08,25.00
2014,09,13,15,09,25.00
2014,09,13,15,10,25.00
2014,09,13,15,11,25.00
2014,09,13,15,12,25.00
2014,09,13,15,13,25.00
2014,09,13,15,14,25.00
2014,09,13,15,15,25.10
2014,09,13,15,16,25.10
2014,09,13,15,17,25.00
2014,09,13,15,18,25.10
2014,09,13,15,19,25.10
2014,09,13,15,20,25.10
2014,09,13,15,21,25.10
2014,09,13,15,22,25.10
2014,09,13,15,23,25.10
2014,09,13,15,24,25.00
2014,09,13,15,25,25.10
2014,09,13,15,26,25.10
2014,09,13,15,27,25.10
2014,09,13,15,28,25.10
2014,09,13,15,29,25.10
2014,09,13,15,30,25.10
2014,09,13,15,31,25.20
2014,09,13,15,32,25.20
2014,09,13,15,33,25.20
2014,09,13,15,34,25.30
2014,09,13,15,35,25.30
2014,09,13,15,36,25.30
2014,09,13,15,37,25.40
2014,09,13,15,38,25.40
2014,09,13,15,39,25.50
2014,09,13,15,40,25.50
2014,09,13,15,41,25.60
2014,09,13,15,42,25.60
2014,09,13,15,43,25.60
2014,09,13,15,44,25.50
2014,09,13,15,45,25.50
2014,09,13,15,46,25.50
2014,09,13,15,47,25.60
2014,09,13,15,48,25.60
2014,09,13,15,49,25.60
2014,09,13,15,50,25.70
2014,09,13,15,51,25.70
2014,09,13,15,52,25.70
2014,09,13,15,53,25.60
2014,09,13,15,54,25.60
2014,09,13,15,55,25.60
2014,09,13,15,56,25.60
2014,09,13,15,57,25.60
2014,09,13,15,58,25.60
2014,09,13,15,59,25.60
2014,09,13,16,00,25.70
2014,09,13,16,01,25.80
2014,09,13,16,02,25.80
2014,09,13,16,03,25.80
2014,09,13,16,04,25.90
2014,09,13,16,05,26.00
2014,09,13,16,06,26.10
2014,09,13,16,07,26.20
2014,09,13,16,08,26.20
2014,09,13,16,09,26.20
2014,09,13,16,10,26.20
2014,09,13,16,11,26.20
2014,09,13,16,12,26.10
2014,09,13,16,13,26.00
2014,09,13,16,14,26.00
2014,09,13,16,15,25.90
2014,09,13,16,16,25.80
2014,09,13,16,17,25.70
2014,09,13,16,18,25.70
2014,09,13,16,19,25.70
2014,09,13,16,20,25.70
2014,09,13,16,21,25.70
2014,09,13,16,22,25.70
2014,09,13,16,23,25.60
2014,09,13,16,24,25.60
2014,09,13,16,25,25.60
2014,09,13,16,26,25.60
2014,09,13,16,27,25.70
2014,09,13,16,28,25.80
2014,09,13,16,29,25.90
2014,09,13,16,30,26.00
2014,09,13,16,31,26.00
2014,09,13,16,32,26.00
2014,09,13,16,33,26.10
2014,09,13,16,34,26.20
2014,09,13,16,35,26.20
2014,09,13,16,36,26.30
2014,09,13,16,37,26.40
2014,09,13,16,38,26.40
2014,09,13,16,39,26.40
2014,09,13,16,40,26.30
2014,09,13,16,41,26.30
2014,09,13,16,42,26.30
2014,09,13,16,43,26.30
2014,09,13,16,44,26.20
2014,09,13,16,45,26.20
2014,09,13,16,46,26.20
2014,09,13,16,47,26.20
2014,09,13,16,48,26.20
2014,09,13,16,49,26.10
2014,09,13,16,50,26.10
2014,09,13,16,51,26.10
2014,09,13,16,52,26.10
2014,09,13,16,53,26.10
2014,09,13,16,54,26.10
2014,09,13,16,55,26.10
2014,09,13,16,56,26.20
2014,09,13,16,57,26.20
2014,09,13,16,58,26.30
2014,09,13,16,59,26.30
2014,09,13,17,00,26.40
2014,09,13,17,01,26.50
2014,09,13,17,02,26.60
2014,09,13,17,03,26.60
2014,09,13,17,04,26.60
2014,09,13,17,05,26.60
2014,09,13,17,06,26.50
2014,09,13,17,07,26.40
2014,09,13,17,08,26.30
2014,09,13,17,09,26.20
2014,09,13,17,10,26.20
2014,09,13,17,11,26.20
2014,09,13,17,12,26.20
2014,09,13,17,13,26.20
2014,09,13,17,14,26.20
2014,09,13,17,15,26.10
2014,09,13,17,16,26.10
2014,09,13,17,17,26.10
2014,09,13,17,18,26.10
2014,09,13,17,19,26.10